Charlottetown, Prince Edward Island

5:55 PM AST on February 26, 2017 (GMT -0400)
Charlottetown

Weather History for CYYG - April, 2013

Change the Weather History Date:

Tuesday, April 23, 2013

  Actual Average Record
Temperature  
Mean Temperature 40 °F -  
Max Temperature 51 °F 54 °F 69 °F (2007)
Min Temperature 28 °F 37 °F 26 °F (1998)
Degree Days  
Heating Degree Days 26    
Moisture  
Dew Point 25 °F    
Average Humidity 60    
Maximum Humidity 87    
Minimum Humidity 18    
Precipitation  
Precipitation 0.16 in 0.13 in - ()
Sea Level Pressure  
Sea Level Pressure 30.66 in    
Wind  
Wind Speed 9 mph ()    
Max Wind Speed 20 mph    
Max Gust Speed 26 mph    
Visibility 14.8 miles    
Events Rain    
Averages and records for this station are not official NWS values.
T = Trace of Precipitation, MM = Missing Value Source: Averaged Metar Reports

Daily Weather History Graph

Daily Weather History Graph

Search for Another Location

Airport or City:

Trip Planner

Search our weather history database for the weather conditions in past years. The results will help you decide how hot, cold, wet, or windy it might be!

Date:

Astronomy

Apr. 23, 2013 Rise Set
Actual Time 6:11 AM ADT 8:10 PM ADT
Civil Twilight 5:39 AM ADT 8:43 PM ADT
Nautical Twilight 4:59 AM ADT 9:23 PM ADT
Astronomical Twilight 4:15 AM ADT 10:07 PM ADT
Moon 5:55 PM ADT (4/23) 4:45 AM ADT (4/23)
Length of Visible Light 15h 04m
Length of Day
13h 59m
Waxing Gibbous, 94% of the Moon is Illuminated
Apr 23
Waxing Gibbous
Apr 25
Full
May 2
Last Quarter
May 9
New
May 18
First Quarter

Hourly Weather History & Observations

Time (ADT) Temp. Windchill Dew Point Humidity Pressure Visibility Wind Dir Wind Speed Gust Speed Precip Events Conditions
12:00 AM 30.2 °F 22.6 °F 23.0 °F 75% 30.79 in 15.0 mi SE 8.1 mph - N/A   Clear
1:00 AM 28.4 °F 21.2 °F 21.2 °F 74% 30.78 in 15.0 mi SE 6.9 mph - N/A   Clear
2:00 AM 28.4 °F 21.2 °F 21.2 °F 74% 30.76 in 15.0 mi SSE 6.9 mph - N/A   Clear
3:00 AM 31 °F - 24 °F 68% 30.75 in 15 mi South 9.2 mph - -   Clear
3:00 AM 32.0 °F 24.2 °F 24.8 °F 75% 30.75 in 15.0 mi South 9.2 mph - N/A   Clear
4:00 AM 30.2 °F 21.3 °F 23.0 °F 75% 30.75 in 15.0 mi South 10.4 mph - N/A   Clear
5:00 AM 30.2 °F 22.6 °F 23.0 °F 75% 30.74 in 15.0 mi South 8.1 mph - N/A   Clear
6:00 AM 30.2 °F 23.4 °F 23.0 °F 75% 30.74 in 15.0 mi South 6.9 mph - N/A   Scattered Clouds
7:00 AM 30.2 °F 24.3 °F 23.0 °F 75% 30.74 in 15.0 mi SSE 5.8 mph - N/A   Scattered Clouds
8:00 AM 33.8 °F 27.0 °F 24.8 °F 70% 30.74 in 15.0 mi SE 8.1 mph - N/A   Mostly Cloudy
9:00 AM 36 °F - 26 °F 57% 30.74 in 15 mi SE 6.9 mph - -   Clear
9:00 AM 35.6 °F 29.9 °F 26.6 °F 70% 30.74 in 15.0 mi SE 6.9 mph - N/A   Mostly Cloudy
10:00 AM 39.2 °F 32.5 °F 23.0 °F 52% 30.73 in 15.0 mi SSE 10.4 mph - N/A   Mostly Cloudy
11:00 AM 42.8 °F 36.6 °F 19.4 °F 39% 30.71 in 15.0 mi SE 11.5 mph - N/A   Mostly Cloudy
12:00 PM 44.6 °F 39.2 °F 19.4 °F 37% 30.70 in 15.0 mi South 10.4 mph - N/A   Mostly Cloudy
1:00 PM 46.4 °F 41.9 °F 15.8 °F 29% 30.66 in 15.0 mi SE 9.2 mph - N/A   Mostly Cloudy
2:00 PM 50.0 °F - 17.6 °F 28% 30.63 in 15.0 mi SSE 15.0 mph 20.7 mph N/A   Mostly Cloudy
3:00 PM 49 °F - 18 °F 18% 30.60 in 15 mi SE 15.0 mph - -   Clear
3:00 PM 50.0 °F - 19.4 °F 30% 30.60 in 15.0 mi SSE 13.8 mph 23.0 mph N/A   Mostly Cloudy
4:00 PM 51.8 °F - 19.4 °F 28% 30.58 in 15.0 mi SE 18.4 mph 26.5 mph N/A   Mostly Cloudy
5:00 PM 50.0 °F - 26.6 °F 40% 30.56 in 15.0 mi SSE 19.6 mph 26.5 mph N/A   Mostly Cloudy
6:00 PM 50.0 °F - 33.8 °F 54% 30.54 in 15.0 mi SSE 17.3 mph 24.2 mph N/A   Overcast
7:00 PM 46.4 °F 39.8 °F 35.6 °F 66% 30.53 in 15.0 mi SSE 16.1 mph 26.5 mph N/A   Overcast
8:00 PM 44.6 °F 37.4 °F 35.6 °F 71% 30.53 in 15.0 mi SSE 16.1 mph 23.0 mph N/A   Overcast
9:00 PM 43 °F - 36 °F 69% 30.54 in 15 mi SSE 15.0 mph - -   Overcast
9:00 PM 42.8 °F 35.4 °F 35.6 °F 76% 30.54 in 15.0 mi SE 15.0 mph - N/A   Overcast
9:27 PM 41.0 °F 33.1 °F 37.4 °F 87% 30.54 in 15.0 mi SSE 15.0 mph 21.9 mph N/A Rain Light Rain
10:00 PM 41.0 °F 34.3 °F 37.4 °F 87% 30.53 in 10.0 mi SE 11.5 mph 18.4 mph N/A Rain Light Rain